• Join FlightAware (Why Join?)
  • Login
  • US Flag 
07:59AM EDT


 

Airport Tracker/Info


-or-


 

Live Flight TrackerFlight Track Log ✈ SWA3497 ✈ 21-Apr-2013 ✈ KBWI - KALB

Flight Track Log - Related Links

Times and Time Zones

All times are in EDT time to prevent confusion due to time zone crossing. See the SWA3497 flight status page for this flight to view local times or setup timezone preferences in your user account.

Time Position Orientation Groundspeed Altitude Reporting Facility
EDT Latitude Longitude Course Direction KTS MPH feet Rate Location/Type
04:22PM 39.1411 -76.7531 100° East 197 227 3,600  Level Washington Center
04:23PM 39.1294 -76.6700 100° East 118 136 5,900 2,640 Climbing Washington Center
04:24PM 39.1325 -76.5736 88° East 142 163 8,900 2,820 Climbing Washington Center
04:25PM 39.1375 -76.4667 87° East 233 268 11,600 3,000 Climbing Washington Center
04:26PM 39.1425 -76.3408 87° East 284 327 14,900 3,180 Climbing Washington Center
04:27PM 39.1494 -76.2097 86° East 309 356 18,100 2,640 Climbing Washington Center
04:28PM 39.1708 -76.0681 79° East 353 406 20,200 2,220 Climbing Washington Center
04:29PM 39.1881 -75.9208 81° East 386 444 22,600 1,380 Climbing Washington Center
04:30PM 39.2611 -75.7953 53° Northeast 410 472 23,000 660 Climbing Washington Center
04:31PM 39.3447 -75.6856 45° Northeast 419 482 24,000 1,740 Climbing Washington Center
04:32PM 39.4322 -75.5700 46° Northeast 430 495 26,500 2,400 Climbing Washington Center
04:33PM 39.5217 -75.4569 44° Northeast 442 509 28,900 780 Climbing Washington Center
04:35PM 39.7114 -75.2019 46° Northeast 471 542 29,000  Climbing New York Center
04:36PM 39.8078 -75.0783 45° Northeast 476 548 29,000  Level New York Center
04:37PM 39.9100 -74.9575 42° Northeast 481 554 29,000  Level New York Center
04:38PM 39.9906 -74.8594 43° Northeast 481 554 29,000  Level New York Center
04:39PM 40.1058 -74.7169 43° Northeast 485 558 29,000  Level New York Center
04:40PM 40.1994 -74.6025 43° Northeast 485 558 29,000  Level New York Center
04:41PM 40.3100 -74.4617 44° Northeast 490 564 29,000  Level New York Center
04:42PM 40.4011 -74.3522 42° Northeast 497 572 29,000  Level New York Center
04:43PM 40.5136 -74.2133 43° Northeast 497 572 29,000 -1,140 Level New York Center
04:45PM 40.7103 -73.9678 43° Northeast 493 567 25,700 -1,740 Descending Boston Center
04:46PM 40.8014 -73.8522 44° Northeast 475 547 24,000 -900 Descending Boston Center
04:47PM 40.8925 -73.7389 43° Northeast 456 525 24,000  Level Boston Center
04:48PM 40.9833 -73.6250 43° Northeast 445 512 24,000 -300 Level Boston Center
04:49PM 41.0761 -73.5194 41° Northeast 440 506 23,500 -780 Descending Boston Center
04:50PM 41.1625 -73.4106 43° Northeast 435 501 22,500 -1,020 Descending Boston Center
04:51PM 41.2689 -73.3819 11° North 403 464 21,500 -1,020 Descending Boston Center
04:52PM 41.3731 -73.4028 351° North 364 419 20,500 -960 Descending Boston Center
04:53PM 41.4772 -73.4181 354° North 364 419 19,500 -960 Descending Boston Center
04:54PM 41.5875 -73.4364 353° North 364 419 18,400 -780 Descending Boston Center
04:55PM 41.6956 -73.4550 353° North 364 419 18,000 -960 Descending Boston Center
04:57PM 41.8556 -73.4763 354° North  Level FlightAware Approximate
04:57PM 41.8828 -73.4886 354° North 347 399 15,600  Level Boston Center
04:58PM 41.9703 -73.5039 353° North 332 382 14,000 -1,620 Descending Boston Center
04:59PM 42.0619 -73.5194 353° North 322 371 12,400 -1,560 Descending Boston Center
05:00PM 42.0972 -73.5228 356° North 314 361 11,800 -1,440 Descending Boston Center
05:00PM 42.1492 -73.5267 357° North 312 359 11,000 -840 Descending Boston Center
05:01PM 42.1783 -73.5411 340° North 293 337 11,000 -840 Level Boston Center
05:01PM 42.2175 -73.5697 332° Northwest 289 333 10,200 -1,440 Descending Boston Center
05:02PM 42.2550 -73.5931 335° Northwest 262 302 9,400 -1,500 Descending Boston Center
05:02PM 42.2858 -73.6158 331° Northwest 272 313 8,700 -1,560 Descending Boston Center
05:03PM 42.3108 -73.6306 336° Northwest 266 306 8,000 -1,440 Descending Boston Center
05:03PM 42.3461 -73.6536 334° Northwest 262 302 7,300 -1,500 Descending Boston Center
05:04PM 42.3872 -73.6825 333° Northwest 264 304 6,400 -1,620 Descending Boston Center
05:04PM 42.4164 -73.7028 333° Northwest 255 293 5,700 -1,380 Descending Boston Center
05:05PM 42.4536 -73.7289 333° Northwest 261 300 5,000 -1,200 Descending Boston Center
05:05PM 42.4742 -73.7406 337° Northwest 262 302 4,500 -1,320 Descending Boston Center
05:06PM 42.5156 -73.7697 333° Northwest 254 292 3,700 -1,140 Descending Boston Center
05:06PM 42.5447 -73.7731 355° North 256 295 3,400 -720 Descending Boston Center
05:06PM 42.5592 -73.7789 343° North 231 266 3,200 -840 Descending Boston Center
05:07PM 42.6050 -73.7911 349° North 237 273 2,600 -600 Descending Boston Center
05:07PM 42.6194 -73.7917 358° North 223 257 2,600 -120 Level Boston Center
05:08PM 42.6631 -73.8122 341° North 237 273 2,500 -900 Descending Boston Center
05:08PM 42.6694 -73.8039 44° Northeast 149 171 1,700 -1,200 Descending Boston Center
05:10PM 42.7089 -73.8075 356° North 124 143 800 -840 Descending Boston Center